Voltar ao catálogo

NNSS 19

TRANSIT 19

AtivoNavegaçãoPO
NORAD 4507·PAYLOAD·🇺🇸 United States

Lançado Aug 27, 1970 de Vandenberg Space Force Base

Loading…

Próximas Passagens (próximas 24 horas)

TLE

AtualizadoSource: Space-Track

Época: Sep 14, 2026, 08:47 UTC

1 04507U 70067A   26257.36651808  .00000072  00000-0  88460-4 0  9994
2 04507  90.0177 234.8796 0170346 213.6531 145.3712 13.51377928759441

Acompanhe NNSS 19 em tempo real com AllMySat

Download on the App Store